Zurück zum Katalog

ELECTRON KICK STAGE R/B

AktivVLEO
NORAD 66555·ROCKET BODY·🇺🇸 United States

Gestartet Nov 20, 2025 von Rocket Lab Launch Complex 1

Loading…

Nächste Überflüge (nächste 24 Stunden)

TLE

AktuellSource: Space-Track

Epoche: Sep 14, 2026, 15:57 UTC

1 66555U 25267B   26257.66466587  .00031149  00000-0  57875-3 0  9992
2 66555  42.0143 241.4750 0019079 160.8445 199.3120 15.48084944 45977

Verfolge ELECTRON KICK STAGE R/B in Echtzeit mit AllMySat

Download on the App Store